Location: Gaast
(52.9002°N, 5.8891°E)
Time: 00:04:54
(UTC+00:00)

Cosmos 1943 Rocket - Pass Details

Date: 18 November 2025
Orbit: 812 x 841 km, 71.0° (Epoch: 04 December)

Event Time Altitude Azimuth Distance (km) Brightness Sun altitude
Rises 19:07:35 0° 248° (WSW) 3,375 6.2 -31.2°
Reaches altitude 10° 19:10:21 10° 260° (W) 2,440 5.4 -31.7°
Maximum altitude 19:15:11 29° 320° (NW) 1,471 3.8 -32.4°
Enters shadow 19:16:45 26° 348° (NNW) 1,599 3.8 -32.6°
